Location: Cahas Mountain Overlook
(37.0833°N, 80.1000°W)
Time: 06:58:57
(UTC-04:00)

Tiros 1 - Pass Details

Date: 13 February 2026
Orbit: 618 x 650 km, 48.4° (Epoch: 14 March)

Event Time Altitude Azimuth Distance (km) Brightness Sun altitude
Rises 16:35:05 0° 304° (NW) 2,884 10.9 14.5°
Reaches altitude 10° 16:37:24 10° 304° (NW) 1,977 10.1 14.1°
Maximum altitude 16:41:56 86° 219° (SW) 622 7.4 13.3°
Drops below altitude 10° 16:46:30 10° 128° (SE) 1,978 9.4 12.5°
Sets 16:48:48 0° 128° (SE) 2,886 10.2 12.1°
